Simultaneous Nadir Overpasses (SNOs) Predictions

Prediction of SNOs between GOES-17 and METOP-C Satellite Orbit:

Table of predicted SNOs for the next 14.0 days since TLE Epoch: 9/30/2023
Index Date Time (GOES-17) GOES-17 Lat,Lon METOP-C Lat,Lon Distance(km) Time Diff (sec)
1 10/01/2023 04:43:55 -0.01,-104.69 -0.82,-108.24 404.35 80
2 10/02/2023 04:20:38 -0.01,-104.69 0.34,-103.26 164.57 80
3 10/03/2023 16:39:30 0.01,-104.72 0.67,-107.82 352.40 80
4 10/04/2023 16:21:31 0.00,-104.72 -0.43,-102.82 216.73 80
5 10/06/2023 04:40:34 -0.00,-104.70 -0.63,-107.42 309.80 80
6 10/07/2023 04:17:15 0.00,-104.71 0.48,-102.43 259.11 80
7 10/08/2023 16:36:08 -0.00,-104.73 0.52,-106.99 257.85 80
8 10/09/2023 16:18:09 -0.00,-104.73 -0.59,-102.00 311.61 80
9 10/11/2023 04:37:12 0.00,-104.72 -0.40,-106.61 213.94 80
10 10/12/2023 04:13:54 0.00,-104.73 0.72,-101.61 355.41 80
11 10/13/2023 16:32:45 -0.00,-104.75 0.33,-106.16 161.34 80
